Weather History for Cape Lisburne, AK

Change the Weather History Date:

Monday, May 7, 2012

  Actual Average Record
Temperature  
Mean Temperature 12 °F -  
Max Temperature 17 °F 26 °F 36 °F (2003)
Min Temperature 6 °F 16 °F 6 °F (2012)
Degree Days  
Heating Degree Days 54    
Moisture  
Dew Point 6 °F    
Average Humidity 76    
Maximum Humidity 78    
Minimum Humidity 71    
Precipitation  
Precipitation 0.00 in - - ()
Sea Level Pressure  
Sea Level Pressure 30.19 in    
Wind  
Wind Speed 16 mph (East)    
Max Wind Speed 23 mph    
Max Gust Speed 26 mph    
Visibility 10 miles    
Events      
Averages and records for this station are not official NWS values.
T = Trace of Precipitation, MM = Missing Value Source: NWS Daily Summary

Daily Weather History Graph

Daily Weather History Graph

Search for Another Location

Airport:

Trip Planner

Search our weather history database for the weather conditions in past years. The results will help you decide how hot, cold, wet, or windy it might be!

Date:

Astronomy

May. 07, 2012 Rise Set
Actual Time 5:14 AM AKDT 12:52 AM AKDT
Civil Twilight 3:33 AM AKDT Sun does not rise
Nautical Twilight Sun does not rise Sun does not rise
Astronomical Twilight Sun does not rise Sun does not rise
Moon No Moon Rise No Moon Set
Length of Visible Light 24h 00m
Length of Day
19h 37m
Waning Gibbous, 96% of the Moon is Illuminated
May 7
Waning Gibbous
May 12
Last Quarter
May 20
New
May 28
First Quarter
Jun 4
Full

Hourly Weather History & Observations

Time (AKDT) Temp. Windchill Dew Point Humidity Pressure Visibility Wind Dir Wind Speed Gust Speed Precip Events Conditions
12:55 AM 6.1 °F -13.3 °F 0.1 °F 77% 30.21 in 10.0 mi East 18.4 mph 23.0 mph N/A   Unknown
1:55 AM 6.1 °F -13.8 °F 0.1 °F 77% 30.22 in 10.0 mi East 19.6 mph - N/A   Unknown
2:55 AM 6.1 °F -10.2 °F 0.1 °F 77% 30.21 in 10.0 mi East 12.7 mph - N/A   Unknown
3:55 AM 6.1 °F -12.2 °F 0.1 °F 77% 30.21 in 10.0 mi ESE 16.1 mph - N/A   Unknown
4:55 AM 7.0 °F -9.1 °F 1.0 °F 77% 30.21 in 10.0 mi East 12.7 mph 16.1 mph N/A   Unknown
5:55 AM 8.1 °F -5.3 °F 2.1 °F 77% 30.21 in 10.0 mi East 9.2 mph - N/A   Unknown
6:55 AM 9.0 °F -0.9 °F 3.0 °F 77% 30.21 in 10.0 mi East 5.8 mph - N/A   Unknown
7:55 AM 10.9 °F -2.6 °F 5.0 °F 77% 30.21 in 10.0 mi East 10.4 mph 17.3 mph N/A   Unknown
8:55 AM 12.0 °F -3.4 °F 6.1 °F 77% 30.21 in 10.0 mi East 13.8 mph - N/A   Unknown
9:55 AM 12.0 °F -4.0 °F 6.1 °F 77% 30.21 in 10.0 mi East 15.0 mph 20.7 mph N/A   Unknown
10:55 AM 12.0 °F -6.9 °F 6.1 °F 77% 30.21 in 10.0 mi ENE 21.9 mph - N/A   Unknown
11:55 AM 12.9 °F -3.4 °F 7.2 °F 78% 30.21 in 10.0 mi ENE 16.1 mph - N/A   Unknown
12:55 PM 14.0 °F -2.5 °F 8.1 °F 77% 30.21 in 10.0 mi ENE 17.3 mph - N/A   Unknown
1:55 PM 14.0 °F -3.4 °F 8.1 °F 77% 30.20 in 7.0 mi East 19.6 mph 25.3 mph N/A   Unknown
2:55 PM 15.1 °F -3.3 °F 7.2 °F 71% 30.20 in 10.0 mi ENE 23.0 mph - N/A   Scattered Clouds
4:55 PM 15.1 °F -3.3 °F 8.1 °F 74% 30.17 in 10.0 mi East 23.0 mph 26.5 mph N/A   Mostly Cloudy
5:55 PM 15.1 °F -2.0 °F 8.1 °F 74% 30.17 in 10.0 mi East 19.6 mph - N/A   Mostly Cloudy
6:55 PM 16.0 °F -1.7 °F 9.1 °F 74% 30.16 in 10.0 mi ENE 21.9 mph - N/A   Mostly Cloudy
7:55 PM 17.1 °F 1.0 °F 11.1 °F 77% 30.15 in 10.0 mi East 18.4 mph - N/A   Mostly Cloudy
8:55 PM 17.1 °F 2.5 °F 11.1 °F 77% 30.14 in 10.0 mi East 15.0 mph - N/A   Overcast
9:55 PM 16.0 °F 0.6 °F 10.0 °F 77% 30.14 in 10.0 mi East 16.1 mph 21.9 mph N/A   Overcast
10:55 PM 16.0 °F 0.6 °F 10.0 °F 77% 30.13 in 10.0 mi East 16.1 mph - N/A   Overcast
11:55 PM 16.0 °F 1.1 °F 10.0 °F 77% 30.13 in 10.0 mi ENE 15.0 mph 23.0 mph N/A   Overcast